Location: Boussac
(44.2782°N, 2.3665°E)
Time: 20:27:59
(UTC+00:00)

CZ-4 R/B - Pass Details

Date: 15 May 2026
Orbit: 491 x 534 km, 97.5° (Epoch: 6 June)

Event Time Altitude Azimuth Distance (km) Brightness Sun altitude
Exits shadow 19:37:58 - 163° (SSE) 2,594 4.3 -5.0°
Rises 19:38:04 0° 163° (SSE) 2,557 4.3 -5.1°
Reaches altitude 10° 19:40:07 10° 162° (SSE) 1,679 3.3 -5.4°
Maximum altitude 19:43:43 77° 77° (ENE) 509 1.1 -5.9°
Drops below altitude 10° 19:47:22 10° 350° (N) 1,697 4.5 -6.4°
Sets 19:49:27 0° 349° (N) 2,588 5.5 -6.7°
